Location: Holbach
(51.5399°N, 10.6036°E)
Time: 10:15:57
(UTC+00:00)

Cosmos 2278 Rocket - Pass Details

Date: 18 September 2020
Orbit: 841 x 845 km, 71.0° (Epoch: 25 October)

Event Time Altitude Azimuth Distance (km) Brightness Sun altitude
Exits shadow 21:22:21 30° 34° (NE) 1,480 3.6 -32.2°
Drops below altitude 10° 21:25:05 10° 32° (NNE) 2,471 4.9 -32.5°
Sets 21:27:32 0° 31° (NNE) 3,410 5.7 -32.7°
